DW3588 Weather Reports


time (UTC)temp
F
wind
direction
speed
knots
gust
knots
rain 1hr
in
rain 24hr
in
rain mn
in
humidity
%
barometer
mb
20260506165327 66 16 0.9 5.2 0.00 0.00 0.00 63 1019.7
20260506164807 66 328 1.7 3.5 0.00 0.00 0.00 65 1019.8
20260506164304 65 330 2.6 4.3 0.00 0.00 0.00 65 1019.8
20260506163533 65 313 1.7 8.7 0.00 0.00 0.00 66 1019.8
20260506163033 65 311 0.9 8.7 0.00 0.00 0.00 66 1019.8
20260506162533 64 233 0.9 3.5 0.00 0.00 0.00 66 1019.8
20260506162032 64 233 0.9 3.5 0.00 0.00 0.00 68 1019.8
20260506161752 62 311 0.9 4.3 0.00 0.00 0.00 70 1019.8
20260506161030 62 311 1.7 4.3 0.00 0.00 0.00 71 1019.8
20260506160527 62 286 0.9 2.6 0.00 0.00 0.00 72 1019.8
20260506160025 61 240 0.9 2.6 0.00 0.00 0.00 73 1019.8
20260506155522 61 221 0.9 2.6 0.00 0.00 0.00 74 1019.9
20260506155021 60 221 0.9 2.6 0.00 0.00 0.00 74 1019.9
20260506154518 60 213 0.9 3.5 0.00 0.00 0.00 75 1019.9
20260506154016 60 211 0.9 3.5 0.00 0.00 0.00 76 1019.9
20260506153515 60 211 0.9 1.7 0.00 0.00 0.00 76 1019.9
20260506153013 59 211 0.9 2.6 0.00 0.00 0.00 77 1020.0
20260506152513 59 211 0.9 2.6 0.00 0.00 0.00 77 1020.0
20260506152012 59 211 0.9 1.7 0.00 0.00 0.00 78 1020.0
20260506151511 58 211 0.9 2.6 0.00 0.00 0.00 78 1020.0
20260506151009 58 211 0.9 2.6 0.00 0.00 0.00 78 1019.9
20260506150507 58 212 0.9 3.5 0.00 0.00 0.00 78 1019.9
20260506150005 58 212 0.9 3.5 0.00 0.00 0.00 79 1020.0
20260506145504 58 215 1.7 2.6 0.00 0.00 0.00 79 1019.9
20260506145002 58 217 0.9 2.6 0.00 0.00 0.00 79 1019.9
20260506144501 58 219 0.9 2.6 0.00 0.00 0.00 79 1019.9
20260506144001 57 219 0.9 2.6 0.00 0.00 0.00 79 1019.8
20260506143459 57 220 0.9 3.5 0.00 0.00 0.00 80 1019.8
20260506142957 57 221 0.9 3.5 0.00 0.00 0.00 79 1019.8
20260506142938 57 225 0.9 3.5 0.00 0.00 0.00 79 1019.7
20260506141955 57 225 1.7 4.3 0.00 0.00 0.00 79 1019.7
20260506141454 57 223 1.7 4.3 0.00 0.00 0.00 79 1019.6
20260506140941 56 223 1.7 5.2 0.00 0.00 0.00 79 1019.5
20260506140659 56 229 1.7 5.2 0.00 0.00 0.00 79 1019.5
20260506135938 56 230 1.7 3.5 0.00 0.00 0.00 79 1019.4
20260506135438 56 240 1.7 4.3 0.00 0.00 0.00 79 1019.5
20260506134937 56 240 1.7 4.3 0.00 0.00 0.00 79 1019.4
20260506134437 56 257 1.7 3.5 0.00 0.00 0.00 79 1019.4
20260506133936 56 238 1.7 4.3 0.00 0.00 0.00 79 1019.4
20260506133435 56 235 2.6 4.3 0.00 0.00 0.00 79 1019.3
20260506132937 56 242 1.7 4.3 0.00 0.00 0.00 80 1019.3
20260506132658 56 244 1.7 4.3 0.00 0.00 0.00 79 1019.2
20260506131933 56 248 1.7 3.5 0.00 0.00 0.00 80 1019.1
20260506131434 56 254 1.7 3.5 0.00 0.00 0.00 80 1019.1
20260506130933 56 256 0.9 3.5 0.00 0.00 0.00 80 1019.1
20260506130432 56 306 0.0 1.7 0.00 0.00 0.00 80 1019.0
20260506125930 56 307 0.0 1.7 0.00 0.00 0.00 80 1019.0
20260506125427 56 307 0.0 1.7 0.00 0.00 0.00 80 1019.0
20260506124927 56 307 0.9 2.6 0.00 0.00 0.00 80 1019.0
20260506124646 56 308 0.0 2.6 0.00 0.00 0.00 80 1019.0
20260506123923 56 308 0.0 2.6 0.00 0.00 0.00 80 1019.0
20260506123421 56 308 0.0 0.0 0.00 0.00 0.00 80 1018.9
20260506122922 56 308 0.0 0.0 0.00 0.00 0.00 80 1018.9
20260506122419 56 308 0.0 0.9 0.00 0.00 0.00 80 1018.9
20260506121918 56 308 0.0 0.9 0.00 0.00 0.00 80 1018.9
20260506121418 56 308 0.0 0.9 0.00 0.00 0.00 80 1018.9
20260506120918 56 308 0.0 0.0 0.00 0.00 0.00 80 1018.9
20260506120417 56 308 0.0 0.9 0.00 0.00 0.00 81 1018.9
20260506120136 56 308 0.0 0.9 0.00 0.00 0.00 81 1018.8
20260506115413 56 308 0.0 0.9 0.00 0.00 0.00 81 1018.8
20260506115136 56 308 0.0 0.9 0.00 0.00 0.00 81 1018.7
20260506114410 56 308 0.0 1.7 0.00 0.00 0.00 81 1018.7
20260506113908 56 308 0.0 1.7 0.00 0.00 0.00 81 1018.7
20260506113406 56 308 0.0 0.9 0.00 0.00 0.00 81 1018.6
20260506112907 56 308 0.0 0.9 0.00 0.00 0.00 81 1018.5
20260506112406 56 308 0.0 0.9 0.00 0.00 0.00 81 1018.5
20260506111905 56 308 0.0 0.9 0.00 0.00 0.00 81 1018.4
20260506111404 56 308 0.0 0.9 0.00 0.00 0.00 81 1018.4
20260506110903 56 308 0.0 0.0 0.00 0.00 0.00 81 1018.3
20260506110632 56 308 0.0 0.9 0.00 0.00 0.00 81 1018.3
20260506105859 56 308 0.0 1.7 0.00 0.00 0.00 81 1018.2
20260506105400 56 308 0.0 1.7 0.00 0.01 0.00 81 1018.3
20260506104859 56 308 0.0 0.9 0.00 0.01 0.00 81 1018.2
20260506104353 56 308 0.0 1.7 0.00 0.01 0.00 81 1018.2
20260506103850 56 309 0.9 1.7 0.00 0.01 0.00 81 1018.2
20260506103350 56 309 0.9 1.7 0.00 0.01 0.00 81 1018.1
20260506102850 56 315 0.0 1.7 0.00 0.01 0.00 81 1018.2
20260506102350 56 315 0.0 1.7 0.00 0.01 0.00 81 1018.1
20260506101849 56 316 0.0 0.9 0.00 0.02 0.00 81 1018.1
20260506101348 56 315 0.0 1.7 0.00 0.02 0.00 81 1018.0
20260506100847 56 316 0.9 1.7 0.00 0.02 0.00 81 1018.1
20260506100345 56 316 0.9 1.7 0.00 0.02 0.00 81 1018.1
20260506095846 56 329 0.0 1.7 0.00 0.02 0.00 81 1018.0
20260506095346 56 330 0.0 0.9 0.00 0.02 0.00 81 1018.0
20260506094840 56 330 0.0 0.9 0.00 0.03 0.00 81 1018.0
20260506094555 56 330 0.0 0.9 0.00 0.03 0.00 81 1017.9
20260506093836 56 330 0.0 1.7 0.00 0.04 0.00 81 1018.0
20260506093336 56 330 0.0 1.7 0.00 0.05 0.00 81 1017.9
20260506092834 56 330 0.0 0.0 0.00 0.05 0.00 81 1017.9
20260506092332 56 330 0.0 0.9 0.00 0.05 0.00 81 1017.9
20260506091832 56 330 0.0 0.9 0.00 0.05 0.00 81 1018.0
20260506091822 56 330 0.0 0.9 0.00 0.05 0.00 81 1017.9
20260506090829 56 330 0.0 0.9 0.00 0.05 0.00 81 1018.0
20260506090329 56 330 0.0 0.0 0.00 0.06 0.00 81 1018.1
20260506085829 56 330 0.0 0.9 0.00 0.06 0.00 81 1018.0
20260506085329 56 330 0.0 1.7 0.00 0.06 0.00 81 1018.1
20260506084825 56 330 0.0 1.7 0.00 0.06 0.00 81 1018.1
20260506084549 56 330 0.0 1.7 0.00 0.06 0.00 80 1018.1
20260506083823 55 330 0.0 1.7 0.00 0.06 0.00 80 1018.1
20260506083322 55 330 0.0 0.9 0.00 0.06 0.00 80 1018.1
20260506083045 55 330 0.9 2.6 0.00 0.06 0.00 80 1018.1
20260506082320 55 330 0.9 2.6 0.00 0.06 0.00 80 1018.0
20260506081820 55 329 0.0 1.7 0.00 0.06 0.00 80 1018.0
20260506081316 55 329 0.9 3.5 0.00 0.06 0.00 80 1017.9
20260506080814 55 329 0.9 3.5 0.00 0.06 0.00 79 1017.9
20260506080321 55 272 0.9 2.6 0.00 0.06 0.00 79 1017.9
20260506073302 56 269 0.0 1.7 0.00 0.06 0.00 77 1017.6
20260506072800 56 269 0.0 1.7 0.00 0.06 0.00 77 1017.7
20260506072523 56 274 0.9 3.5 0.00 0.06 0.00 77 1017.6
20260506071756 56 274 0.9 3.5 0.00 0.06 0.00 77 1017.6
20260506071529 56 275 0.9 3.5 0.00 0.06 0.00 77 1017.6
20260506070755 56 275 0.9 3.5 0.00 0.06 0.00 77 1017.5
20260506070255 56 285 0.9 2.6 0.00 0.06 0.00 77 1017.5
20260506062254 57 261 0.9 2.6 0.00 0.07 0.07 75 1017.2
20260506061753 57 259 0.9 2.6 0.00 0.07 0.07 75 1017.2
20260506061252 57 259 0.9 2.6 0.00 0.07 0.07 75 1017.1
20260506060751 58 258 0.9 2.6 0.00 0.07 0.07 74 1017.1
20260506060252 58 258 0.9 2.6 0.00 0.07 0.07 74 1017.0
20260506051235 60 255 0.0 1.7 0.00 0.07 0.07 71 1016.6
20260506050733 60 255 0.0 1.7 0.00 0.07 0.07 71 1016.5
20260506050232 60 255 0.0 1.7 0.00 0.07 0.07 71 1016.5
20260506044726 60 256 0.0 1.7 0.00 0.07 0.07 70 1016.4
20260506044226 60 256 0.0 1.7 0.00 0.07 0.07 70 1016.4
20260506043721 61 256 0.9 3.5 0.00 0.07 0.07 70 1016.3
20260506043220 61 256 2.6 3.5 0.00 0.07 0.07 70 1016.2
20260506042719 61 245 2.6 6.1 0.00 0.07 0.07 70 1016.0
20260506042216 61 247 2.6 6.1 0.00 0.07 0.07 69 1016.0
20260506041716 61 242 2.6 6.1 0.00 0.07 0.07 69 1015.9
20260506041212 61 245 3.5 6.1 0.00 0.07 0.07 69 1015.7
20260506040936 61 250 3.5 7.0 0.00 0.07 0.07 69 1015.7
20260506040210 62 243 3.5 7.0 0.00 0.07 0.07 69 1015.7
20260506035709 62 234 2.6 6.1 0.00 0.07 0.07 69 1015.8
20260506035430 62 244 2.6 6.1 0.00 0.07 0.07 69 1015.8
20260506034708 62 235 2.6 6.1 0.00 0.07 0.07 69 1015.7
20260506034208 62 241 3.5 6.1 0.00 0.07 0.07 69 1015.7
20260506033708 62 238 2.6 5.2 0.00 0.07 0.07 68 1015.7
20260506033206 62 232 2.6 6.1 0.00 0.07 0.07 68 1015.6
20260506032705 62 236 2.6 6.1 0.00 0.07 0.07 68 1015.5
20260506032207 62 247 3.5 7.0 0.00 0.07 0.07 68 1015.4
20260506031705 63 243 2.6 7.0 0.00 0.07 0.07 68 1015.4
20260506031203 63 258 2.6 7.0 0.00 0.07 0.07 68 1015.3
20260506030655 63 237 2.6 7.0 0.00 0.07 0.07 67 1015.3
20260506030154 63 240 2.6 6.1 0.00 0.07 0.07 67 1015.2
20260506025921 63 263 2.6 6.1 0.00 0.07 0.07 67 1015.3
20260506025152 63 232 2.6 6.1 0.00 0.07 0.07 67 1015.2
20260506024914 63 267 2.6 6.1 0.00 0.07 0.07 67 1015.1
20260506024150 64 232 2.6 7.0 0.00 0.07 0.07 67 1015.1
20260506023649 64 268 2.6 7.0 0.00 0.07 0.07 67 1015.1
20260506023150 64 240 2.6 5.2 0.00 0.07 0.07 67 1015.0
20260506022650 64 281 2.6 5.2 0.00 0.07 0.07 66 1015.0
20260506022148 64 252 2.6 5.2 0.00 0.07 0.07 66 1014.9
20260506021646 64 219 2.6 4.3 0.00 0.07 0.07 66 1014.9
20260506021144 64 230 2.6 6.1 0.00 0.07 0.07 66 1014.9
20260506020641 64 240 3.5 7.8 0.00 0.07 0.07 66 1014.8
20260506020142 65 238 3.5 7.8 0.00 0.07 0.07 66 1014.8
20260506015642 65 211 3.5 7.0 0.00 0.07 0.07 66 1014.7
20260506015401 65 225 3.5 7.0 0.00 0.07 0.07 66 1014.7
20260506014634 65 248 3.5 7.0 0.00 0.07 0.07 66 1014.7
20260506014134 65 219 2.6 6.1 0.00 0.07 0.07 66 1014.6
20260506013634 65 220 2.6 6.1 0.00 0.07 0.07 66 1014.7
20260506013135 65 194 2.6 4.3 0.00 0.07 0.07 66 1014.7
20260506012632 65 231 1.7 4.3 0.00 0.07 0.07 66 1014.7
20260506012125 65 213 1.7 3.5 0.00 0.07 0.07 65 1014.7
20260506011627 65 227 1.7 4.3 0.00 0.07 0.07 65 1014.6
20260506011124 65 205 1.7 4.3 0.00 0.07 0.07 65 1014.6
20260506010845 65 211 1.7 4.3 0.00 0.07 0.07 65 1014.7
20260506010124 65 193 2.6 6.1 0.00 0.07 0.07 65 1014.7
20260506005621 65 198 2.6 7.0 0.00 0.07 0.07 65 1014.6
20260506005123 65 224 2.6 7.0 0.00 0.07 0.07 66 1014.6
20260506004620 65 206 2.6 7.0 0.00 0.07 0.07 66 1014.6
20260506004119 65 216 2.6 7.0 0.00 0.07 0.07 66 1014.6
20260506003611 65 205 2.6 6.1 0.00 0.07 0.07 66 1014.6
20260506003111 65 200 2.6 7.0 0.00 0.07 0.07 66 1014.6
20260506002608 65 223 2.6 7.0 0.00 0.07 0.07 66 1014.6
20260506002325 66 225 2.6 6.1 0.00 0.07 0.07 66 1014.5
20260506001607 66 228 2.6 6.1 0.00 0.07 0.07 65 1014.5
20260506001105 66 241 3.5 7.0 0.00 0.07 0.07 65 1014.5
20260506000604 66 270 3.5 7.0 0.00 0.07 0.07 65 1014.5
20260506000101 66 242 3.5 7.0 0.00 0.07 0.07 65 1014.5
20260505235559 66 234 3.5 7.0 0.00 0.07 0.07 65 1014.5
20260505235059 66 246 2.6 7.0 0.00 0.07 0.07 65 1014.5
20260505234600 66 282 1.7 5.2 0.00 0.07 0.07 65 1014.5
20260505234059 66 250 1.7 4.3 0.00 0.07 0.07 65 1014.5
20260505233831 66 232 1.7 4.3 0.00 0.07 0.07 65 1014.5
20260505233050 66 233 1.7 4.3 0.00 0.07 0.07 65 1014.4
20260505232550 66 195 1.7 4.3 0.00 0.07 0.07 65 1014.5
20260505232050 66 169 1.7 4.3 0.00 0.07 0.07 66 1014.4
20260505231550 66 270 0.9 3.5 0.00 0.07 0.07 65 1014.5
20260505231049 66 274 1.7 6.1 0.00 0.07 0.07 65 1014.5
20260505230809 66 273 2.6 6.1 0.00 0.07 0.07 65 1014.5
20260505230049 66 279 1.7 6.1 0.00 0.07 0.07 65 1014.5
20260505225549 66 276 0.9 3.5 0.00 0.07 0.07 66 1014.6
20260505225049 66 274 1.7 3.5 0.00 0.07 0.07 66 1014.6
20260505224547 66 277 1.7 3.5 0.00 0.07 0.07 65 1014.6
20260505224048 66 271 1.7 4.3 0.00 0.07 0.07 66 1014.6
20260505223547 66 279 2.6 5.2 0.00 0.07 0.07 66 1014.6
20260505223044 66 246 2.6 6.1 0.00 0.07 0.07 66 1014.7
20260505222527 66 223 2.6 6.1 0.00 0.07 0.07 66 1014.7
20260505222024 66 211 3.5 6.1 0.00 0.07 0.07 66 1014.7
20260505221525 66 243 3.5 7.8 0.00 0.07 0.07 66 1014.8
20260505221021 66 242 4.3 8.7 0.00 0.07 0.07 66 1014.8
20260505220522 66 227 4.3 8.7 0.00 0.07 0.07 66 1014.8
20260505220021 66 240 4.3 8.7 0.00 0.07 0.07 65 1014.8
20260505215521 66 225 3.5 7.8 0.00 0.07 0.07 66 1014.9
20260505215022 66 257 3.5 7.8 0.00 0.07 0.07 66 1014.8
20260505214519 66 311 2.6 7.0 0.00 0.07 0.07 66 1014.8
20260505214018 66 235 2.6 7.0 0.00 0.07 0.07 66 1014.9
20260505213517 66 229 1.7 5.2 0.00 0.07 0.07 64 1014.9
20260505213019 66 217 1.7 7.0 0.00 0.07 0.07 66 1014.9
20260505212956 66 236 2.6 7.0 0.00 0.07 0.07 66 1015.0
20260505212014 65 264 3.5 7.0 0.00 0.07 0.07 67 1015.0
20260505211514 64 236 3.5 7.0 0.00 0.07 0.07 69 1015.0
20260505211011 64 217 3.5 7.8 0.00 0.07 0.07 68 1015.1
20260505210512 64 261 3.5 7.8 0.00 0.07 0.07 68 1015.1
20260505210011 64 264 2.6 7.0 0.00 0.07 0.07 68 1015.0
20260505205511 64 222 2.6 6.1 0.00 0.07 0.07 68 1015.1
20260505205012 65 251 2.6 6.1 0.00 0.07 0.07 68 1015.1
20260505204509 65 267 1.7 6.1 0.00 0.07 0.07 68 1015.1
20260505204009 65 288 1.7 3.5 0.00 0.07 0.07 67 1015.1
20260505203507 65 329 1.7 4.3 0.00 0.07 0.07 67 1015.2
20260505202953 65 315 1.7 4.3 0.00 0.07 0.07 67 1015.2
20260505202452 65 317 2.6 4.3 0.00 0.07 0.07 66 1015.2
20260505201941 65 315 3.5 7.0 0.00 0.07 0.07 66 1015.2
20260505201439 65 324 1.7 7.0 0.00 0.07 0.07 66 1015.2
20260505200939 65 294 1.7 6.1 0.00 0.07 0.07 66 1015.2
20260505200916 65 292 2.6 7.0 0.00 0.07 0.07 66 1015.2
20260505195938 65 242 2.6 7.0 0.00 0.07 0.07 66 1015.1
20260505195440 66 245 2.6 6.1 0.00 0.07 0.07 67 1015.2
20260505195159 65 292 2.6 6.1 0.00 0.07 0.07 65 1015.2
20260505194437 66 299 2.6 6.1 0.00 0.07 0.07 68 1015.3
20260505193934 65 275 2.6 7.0 0.00 0.07 0.07 69 1015.2
20260505193433 64 232 3.5 7.8 0.00 0.07 0.07 70 1015.3
20260505192931 63 257 3.5 7.8 0.00 0.07 0.07 71 1015.3
20260505192427 62 269 4.3 7.8 0.00 0.07 0.07 72 1015.4
20260505191928 62 302 4.3 8.7 0.00 0.07 0.07 72 1015.3
20260505191423 62 317 3.5 8.7 0.00 0.07 0.07 73 1015.2
20260505191143 61 300 3.5 7.8 0.00 0.07 0.07 74 1015.2
20260505190421 61 277 3.5 8.7 0.00 0.07 0.07 74 1015.2
20260505185921 61 261 4.3 8.7 0.00 0.07 0.07 74 1015.3
20260505185421 61 267 4.3 8.7 0.00 0.07 0.07 73 1015.3
20260505184925 61 279 5.2 11.3 0.00 0.07 0.07 74 1015.3
20260505184639 61 304 5.2 11.3 0.00 0.07 0.07 75 1015.2
20260505184143 61 257 4.3 8.7 0.00 0.07 0.07 74 1015.2
20260505183417 60 255 4.3 8.7 0.00 0.07 0.07 75 1015.2
20260505182917 60 310 4.3 8.7 0.00 0.07 0.07 75 1015.2
20260505182906 60 299 4.3 8.7 0.00 0.07 0.07 76 1015.2
20260505181917 60 275 4.3 8.7 0.00 0.07 0.07 76 1015.1
20260505181642 60 351 4.3 10.4 0.00 0.07 0.07 77 1015.1
20260505180916 60 300 4.3 10.4 0.00 0.07 0.07 77 1015.2
20260505180415 60 312 3.5 8.7 0.00 0.07 0.07 78 1015.1
20260505175915 59 318 4.3 7.8 0.00 0.07 0.07 78 1015.1
20260505175414 59 300 4.3 8.7 0.00 0.07 0.07 79 1015.1
20260505174915 59 317 3.5 8.7 0.00 0.07 0.07 79 1015.1
20260505174414 58 307 4.3 8.7 0.00 0.07 0.07 80 1015.0
20260505173909 58 296 4.3 8.7 0.00 0.07 0.07 80 1014.9
20260505173410 58 296 4.3 8.7 0.00 0.07 0.07 80 1014.8
20260505172909 58 313 3.5 8.7 0.00 0.07 0.07 81 1014.8
20260505172405 58 321 3.5 8.7 0.00 0.07 0.07 81 1014.8
20260505172125 57 307 4.3 9.6 0.00 0.07 0.07 81 1014.8
20260505171405 57 324 4.3 10.4 0.00 0.07 0.07 82 1014.8
20260505170905 57 304 4.3 10.4 0.00 0.07 0.07 82 1014.8
20260505170404 57 307 3.5 7.8 0.00 0.07 0.07 83 1014.8
20260505170122 57 298 3.5 7.8 0.00 0.07 0.07 83 1014.8